Time,TemperatureF,DewpointF,PressureIn,WindDirection,WindDirectionDegrees,WindSpeedMPH,WindSpeedGustMPH,Humidity,HourlyPrecipIn,Conditions,Clouds,dailyrainin,SoftwareType,DateUTC
2013-02-22 00:00:00,38.6,37.6,30.06,WNW,296,2.0,2.0,96,0.15,,,0.00,Wunderground v.1.15,2013-02-22 05:00:00,
2013-02-22 00:02:00,38.6,37.6,30.06,WNW,296,2.0,8.0,96,0.19,,,0.01,Wunderground v.1.15,2013-02-22 05:02:00,
2013-02-22 00:03:00,38.6,37.6,30.06,WNW,296,1.0,8.0,96,0.19,,,0.01,Wunderground v.1.15,2013-02-22 05:03:00,
2013-02-22 00:09:00,38.6,37.6,30.06,WNW,296,0.0,8.0,96,0.10,,,0.02,Wunderground v.1.15,2013-02-22 05:09:00,
2013-02-22 00:11:00,38.6,37.6,30.06,WNW,296,0.0,8.0,96,0.19,,,0.03,Wunderground v.1.15,2013-02-22 05:11:00,
2013-02-22 00:16:00,38.5,37.5,30.07,WNW,296,0.0,8.0,96,0.13,,,0.04,Wunderground v.1.15,2013-02-22 05:16:00,
2013-02-22 00:21:00,38.4,37.4,30.07,WNW,296,0.0,8.0,96,0.16,,,0.05,Wunderground v.1.15,2013-02-22 05:21:00,
2013-02-22 00:26:00,38.4,37.4,30.07,WNW,296,0.0,8.0,96,0.10,,,0.06,Wunderground v.1.15,2013-02-22 05:26:00,
2013-02-22 00:31:00,38.4,37.4,30.06,WNW,296,1.0,8.0,96,0.13,,,0.07,Wunderground v.1.15,2013-02-22 05:31:00,
2013-02-22 00:36:00,38.4,37.4,30.06,WNW,296,1.0,8.0,96,0.20,,,0.09,Wunderground v.1.15,2013-02-22 05:36:00,
2013-02-22 00:41:00,38.4,37.6,30.06,WNW,296,0.0,8.0,97,0.15,,,0.10,Wunderground v.1.15,2013-02-22 05:41:00,
2013-02-22 00:46:00,38.3,37.5,30.05,WNW,296,0.0,8.0,97,0.15,,,0.11,Wunderground v.1.15,2013-02-22 05:46:00,
2013-02-22 00:51:00,38.3,37.5,30.05,WNW,296,0.0,8.0,97,0.12,,,0.12,Wunderground v.1.15,2013-02-22 05:51:00,
2013-02-22 00:56:00,38.3,37.5,30.05,WNW,296,0.0,8.0,97,0.13,,,0.13,Wunderground v.1.15,2013-02-22 05:56:00,
2013-02-22 01:02:00,38.4,37.6,30.06,WNW,296,0.0,8.0,97,0.18,,,0.15,Wunderground v.1.15,2013-02-22 06:02:00,
2013-02-22 01:07:00,38.4,37.6,30.06,WNW,296,0.0,8.0,97,0.16,,,0.16,Wunderground v.1.15,2013-02-22 06:07:00,
2013-02-22 01:12:00,38.4,37.6,30.06,WNW,296,0.0,8.0,97,0.12,,,0.17,Wunderground v.1.15,2013-02-22 06:12:00,
2013-02-22 01:17:00,38.4,37.6,30.06,WNW,296,0.0,8.0,97,0.18,,,0.19,Wunderground v.1.15,2013-02-22 06:17:00,
2013-02-22 01:22:00,38.4,37.6,30.06,WNW,296,1.0,8.0,97,0.25,,,0.21,Wunderground v.1.15,2013-02-22 06:22:00,
2013-02-22 01:27:00,38.4,37.6,30.06,SE,130,2.0,8.0,97,0.25,,,0.22,Wunderground v.1.15,2013-02-22 06:27:00,
2013-02-22 01:33:00,38.3,37.5,30.06,SSE,159,4.0,13.0,97,0.14,,,0.24,Wunderground v.1.15,2013-02-22 06:33:00,
2013-02-22 01:38:00,38.2,37.4,30.06,SE,138,9.0,22.0,97,0.14,,,0.25,Wunderground v.1.15,2013-02-22 06:38:00,
2013-02-22 01:43:00,38.3,37.5,30.04,SE,126,12.0,18.0,97,0.11,,,0.26,Wunderground v.1.15,2013-02-22 06:43:00,
2013-02-22 01:48:00,38.4,37.6,30.04,ESE,119,17.0,26.0,97,0.13,,,0.28,Wunderground v.1.15,2013-02-22 06:48:00,
2013-02-22 01:53:00,38.5,37.7,30.04,SE,139,21.0,23.0,97,0.21,,,0.29,Wunderground v.1.15,2013-02-22 06:53:00,
2013-02-22 01:58:00,38.7,37.7,30.02,SE,136,23.0,28.0,96,0.10,,,0.30,Wunderground v.1.15,2013-02-22 06:58:00,
2013-02-22 02:03:00,38.8,37.5,30.02,SSE,161,24.0,40.0,95,0.13,,,0.31,Wunderground v.1.15,2013-02-22 07:03:00,
2013-02-22 02:09:00,38.9,37.3,30.02,SSE,165,24.0,40.0,94,0.10,,,0.32,Wunderground v.1.15,2013-02-22 07:09:00,
2013-02-22 02:14:00,39.1,37.2,30.01,ESE,123,24.0,27.0,93,0.16,,,0.33,Wunderground v.1.15,2013-02-22 07:14:00,
2013-02-22 02:19:00,39.1,37.0,30.01,ESE,119,23.0,32.0,92,0.08,,,0.33,Wunderground v.1.15,2013-02-22 07:19:00,
2013-02-22 02:24:00,39.1,37.0,30.01,SE,143,26.0,30.0,92,0.05,,,0.34,Wunderground v.1.15,2013-02-22 07:24:00,
2013-02-22 02:30:00,39.1,37.0,30.00,SE,128,25.0,25.0,92,0.05,,,0.34,Wunderground v.1.15,2013-02-22 07:30:00,
2013-02-22 02:35:00,39.1,37.0,30.00,SSE,148,23.0,39.0,92,0.08,,,0.35,Wunderground v.1.15,2013-02-22 07:35:00,
2013-02-22 02:40:00,39.2,37.1,30.00,SE,126,23.0,23.0,92,0.07,,,0.35,Wunderground v.1.15,2013-02-22 07:40:00,
2013-02-22 02:45:00,39.3,36.9,30.00,ESE,119,23.0,33.0,91,0.06,,,0.36,Wunderground v.1.15,2013-02-22 07:45:00,
2013-02-22 02:50:00,39.3,36.9,30.00,South,172,25.0,27.0,91,0.14,,,0.37,Wunderground v.1.15,2013-02-22 07:50:00,
2013-02-22 02:55:00,39.1,37.0,30.00,SE,130,26.0,27.0,92,0.25,,,0.39,Wunderground v.1.15,2013-02-22 07:55:00,
2013-02-22 03:00:00,38.9,36.8,30.02,SSE,153,23.0,23.0,92,0.26,,,0.41,Wunderground v.1.15,2013-02-22 08:00:00,
2013-02-22 03:05:00,38.5,36.7,30.02,SE,128,16.0,23.0,93,0.19,,,0.42,Wunderground v.1.15,2013-02-22 08:05:00,
2013-02-22 03:10:00,38.2,36.6,30.02,SSE,151,13.0,13.0,94,0.12,,,0.43,Wunderground v.1.15,2013-02-22 08:10:00,
2013-02-22 03:15:00,38.3,36.5,29.97,SSE,163,15.0,20.0,93,0.10,,,0.44,Wunderground v.1.15,2013-02-22 08:15:00,
2013-02-22 03:20:00,38.2,36.6,29.97,SSE,148,17.0,18.0,94,0.07,,,0.44,Wunderground v.1.15,2013-02-22 08:20:00,
2013-02-22 03:26:00,38.1,36.5,29.97,SSE,150,13.0,25.0,94,0.04,,,0.45,Wunderground v.1.15,2013-02-22 08:26:00,
2013-02-22 03:31:00,38.3,36.5,30.00,ESE,105,16.0,24.0,93,0.16,,,0.46,Wunderground v.1.15,2013-02-22 08:31:00,
2013-02-22 03:36:00,38.2,36.4,30.00,ESE,113,21.0,30.0,93,0.24,,,0.48,Wunderground v.1.15,2013-02-22 08:36:00,
2013-02-22 03:41:00,37.9,36.3,30.00,SE,140,20.0,21.0,94,0.19,,,0.50,Wunderground v.1.15,2013-02-22 08:41:00,
2013-02-22 03:46:00,37.8,36.2,29.99,SE,125,21.0,31.0,94,0.18,,,0.52,Wunderground v.1.15,2013-02-22 08:46:00,
2013-02-22 03:51:00,37.6,36.0,29.99,SE,135,21.0,22.0,94,0.20,,,0.53,Wunderground v.1.15,2013-02-22 08:51:00,
2013-02-22 03:56:00,37.4,36.1,29.99,SSE,148,19.0,22.0,95,0.28,,,0.55,Wunderground v.1.15,2013-02-22 08:56:00,
2013-02-22 04:02:00,37.3,36.0,29.98,ESE,122,19.0,20.0,95,0.36,,,0.59,Wunderground v.1.15,2013-02-22 09:02:00,
2013-02-22 04:07:00,37.3,36.0,29.98,SSE,151,21.0,29.0,95,0.21,,,0.61,Wunderground v.1.15,2013-02-22 09:07:00,
2013-02-22 04:12:00,37.4,36.1,29.98,SE,141,23.0,26.0,95,0.08,,,0.61,Wunderground v.1.15,2013-02-22 09:12:00,
2013-02-22 04:17:00,37.5,35.9,29.98,ESE,113,24.0,28.0,94,0.05,,,0.62,Wunderground v.1.15,2013-02-22 09:17:00,
2013-02-22 04:23:00,37.4,36.1,29.98,ESE,119,22.0,26.0,95,0.05,,,0.62,Wunderground v.1.15,2013-02-22 09:23:00,
2013-02-22 04:28:00,37.5,35.9,30.00,ESE,111,19.0,26.0,94,0.05,,,0.62,Wunderground v.1.15,2013-02-22 09:28:00,
2013-02-22 04:33:00,37.3,36.0,30.00,SE,124,16.0,20.0,95,0.00,,,0.62,Wunderground v.1.15,2013-02-22 09:33:00,
2013-02-22 04:39:00,37.2,35.9,30.00,SSE,152,17.0,22.0,95,0.00,,,0.62,Wunderground v.1.15,2013-02-22 09:39:00,
2013-02-22 04:44:00,37.3,36.0,30.00,SE,129,16.0,26.0,95,0.00,,,0.62,Wunderground v.1.15,2013-02-22 09:44:00,
2013-02-22 04:50:00,36.9,35.3,30.00,ESE,112,19.0,19.0,94,0.00,,,0.63,Wunderground v.1.15,2013-02-22 09:50:00,
2013-02-22 04:55:00,36.7,35.1,30.00,ESE,117,18.0,19.0,94,0.00,,,0.63,Wunderground v.1.15,2013-02-22 09:55:00,
2013-02-22 05:00:00,36.8,35.2,30.00,SE,124,15.0,23.0,94,0.00,,,0.63,Wunderground v.1.15,2013-02-22 10:00:00,
2013-02-22 05:05:00,36.9,35.1,30.00,SSE,155,21.0,42.0,93,0.00,,,0.63,Wunderground v.1.15,2013-02-22 10:05:00,
2013-02-22 05:11:00,37.0,35.2,30.00,ESE,119,22.0,23.0,93,0.00,,,0.63,Wunderground v.1.15,2013-02-22 10:11:00,
2013-02-22 05:16:00,37.0,35.2,30.00,ESE,119,17.0,29.0,93,0.00,,,0.63,Wunderground v.1.15,2013-02-22 10:16:00,
2013-02-22 05:21:00,37.1,35.3,30.00,East,99,18.0,20.0,93,0.00,,,0.64,Wunderground v.1.15,2013-02-22 10:21:00,
2013-02-22 05:26:00,36.9,35.1,30.00,ESE,121,19.0,25.0,93,0.13,,,0.65,Wunderground v.1.15,2013-02-22 10:26:00,
2013-02-22 05:32:00,36.7,34.9,30.02,SE,126,18.0,29.0,93,0.07,,,0.65,Wunderground v.1.15,2013-02-22 10:32:00,
2013-02-22 05:37:00,36.7,34.6,30.02,SE,130,20.0,29.0,92,0.05,,,0.65,Wunderground v.1.15,2013-02-22 10:37:00,
2013-02-22 05:42:00,36.7,34.3,30.03,SE,144,22.0,32.0,91,0.00,,,0.65,Wunderground v.1.15,2013-02-22 10:42:00,
2013-02-22 05:47:00,36.5,34.1,30.03,ESE,109,22.0,32.0,91,0.00,,,0.66,Wunderground v.1.15,2013-02-22 10:47:00,
2013-02-22 05:52:00,36.4,34.0,30.03,SE,135,22.0,25.0,91,0.00,,,0.66,Wunderground v.1.15,2013-02-22 10:52:00,
2013-02-22 05:58:00,36.4,34.3,30.03,SE,134,20.0,25.0,92,0.00,,,0.66,Wunderground v.1.15,2013-02-22 10:58:00,
2013-02-22 06:03:00,36.2,33.8,30.03,SSE,147,18.0,20.0,91,0.00,,,0.66,Wunderground v.1.15,2013-02-22 11:03:00,
2013-02-22 06:08:00,36.2,33.8,30.03,SE,140,18.0,20.0,91,0.00,,,0.66,Wunderground v.1.15,2013-02-22 11:08:00,
2013-02-22 06:14:00,36.2,33.5,30.03,SE,126,18.0,22.0,90,0.00,,,0.66,Wunderground v.1.15,2013-02-22 11:14:00,
2013-02-22 06:19:00,36.2,33.8,30.03,SSE,158,17.0,22.0,91,0.00,,,0.66,Wunderground v.1.15,2013-02-22 11:19:00,
2013-02-22 06:25:00,36.3,33.6,30.03,SE,136,16.0,24.0,90,0.00,,,0.66,Wunderground v.1.15,2013-02-22 11:25:00,
2013-02-22 06:30:00,36.3,33.6,30.03,ESE,117,16.0,16.0,90,0.00,,,0.66,Wunderground v.1.15,2013-02-22 11:30:00,
2013-02-22 06:35:00,36.2,33.8,30.03,SSE,150,16.0,18.0,91,0.00,,,0.66,Wunderground v.1.15,2013-02-22 11:35:00,
2013-02-22 06:40:00,36.0,33.6,30.03,SE,128,16.0,16.0,91,0.00,,,0.66,Wunderground v.1.15,2013-02-22 11:40:00,
2013-02-22 06:45:00,35.9,33.8,30.02,SE,144,15.0,21.0,92,0.00,,,0.66,Wunderground v.1.15,2013-02-22 11:45:00,
2013-02-22 06:50:00,35.9,33.8,30.02,SE,143,12.0,16.0,92,0.00,,,0.66,Wunderground v.1.15,2013-02-22 11:50:00,
2013-02-22 06:56:00,35.8,33.7,30.02,SE,141,12.0,17.0,92,0.00,,,0.66,Wunderground v.1.15,2013-02-22 11:56:00,
2013-02-22 07:01:00,35.8,33.7,30.02,SSE,154,12.0,14.0,92,0.00,,,0.66,Wunderground v.1.15,2013-02-22 12:01:00,
2013-02-22 07:06:00,35.8,33.7,30.02,ESE,120,8.0,14.0,92,0.00,,,0.66,Wunderground v.1.15,2013-02-22 12:06:00,
2013-02-22 07:11:00,35.8,33.7,30.02,SE,146,9.0,9.0,92,0.00,,,0.66,Wunderground v.1.15,2013-02-22 12:11:00,
2013-02-22 07:16:00,35.8,33.7,30.01,SE,146,9.0,13.0,92,0.00,,,0.66,Wunderground v.1.15,2013-02-22 12:16:00,
2013-02-22 07:22:00,35.8,33.7,30.01,SSE,152,8.0,11.0,92,0.00,,,0.66,Wunderground v.1.15,2013-02-22 12:22:00,
2013-02-22 07:27:00,35.9,33.8,30.01,SSE,162,10.0,13.0,92,0.00,,,0.66,Wunderground v.1.15,2013-02-22 12:27:00,
2013-02-22 07:32:00,35.9,33.8,30.01,SE,132,11.0,15.0,92,0.00,,,0.66,Wunderground v.1.15,2013-02-22 12:32:00,
2013-02-22 07:37:00,35.9,33.5,30.01,SE,132,13.0,15.0,91,0.00,,,0.66,Wunderground v.1.15,2013-02-22 12:37:00,
2013-02-22 07:43:00,35.9,33.8,30.01,SSE,153,14.0,21.0,92,0.00,,,0.66,Wunderground v.1.15,2013-02-22 12:43:00,
2013-02-22 07:48:00,35.9,33.5,30.01,SSE,151,16.0,21.0,91,0.00,,,0.66,Wunderground v.1.15,2013-02-22 12:48:00,
2013-02-22 07:53:00,35.8,33.4,30.01,SE,139,17.0,18.0,91,0.00,,,0.66,Wunderground v.1.15,2013-02-22 12:53:00,
2013-02-22 07:58:00,35.8,33.4,30.02,SSE,148,16.0,21.0,91,0.00,,,0.66,Wunderground v.1.15,2013-02-22 12:58:00,
2013-02-22 08:03:00,35.9,33.5,30.02,SSE,157,16.0,17.0,91,0.00,,,0.66,Wunderground v.1.15,2013-02-22 13:03:00,
2013-02-22 08:08:00,35.9,33.5,30.02,SE,146,16.0,21.0,91,0.00,,,0.66,Wunderground v.1.15,2013-02-22 13:08:00,
2013-02-22 08:14:00,35.9,33.8,30.03,SSE,156,17.0,18.0,92,0.00,,,0.66,Wunderground v.1.15,2013-02-22 13:14:00,
2013-02-22 08:19:00,35.8,33.7,30.03,SE,139,16.0,18.0,92,0.00,,,0.66,Wunderground v.1.15,2013-02-22 13:19:00,
2013-02-22 08:25:00,36.0,34.2,30.03,SE,131,15.0,26.0,93,0.00,,,0.67,Wunderground v.1.15,2013-02-22 13:25:00,
2013-02-22 08:30:00,36.1,34.3,30.03,SE,145,17.0,21.0,93,0.00,,,0.67,Wunderground v.1.15,2013-02-22 13:30:00,
2013-02-22 08:35:00,36.2,33.8,30.03,SE,124,19.0,25.0,91,0.00,,,0.67,Wunderground v.1.15,2013-02-22 13:35:00,
2013-02-22 08:40:00,36.2,34.1,30.03,SE,129,18.0,23.0,92,0.00,,,0.67,Wunderground v.1.15,2013-02-22 13:40:00,
2013-02-22 08:45:00,36.1,33.5,30.03,SE,128,17.0,24.0,90,0.00,,,0.67,Wunderground v.1.15,2013-02-22 13:45:00,
2013-02-22 08:50:00,36.0,33.6,30.03,SE,136,17.0,18.0,91,0.00,,,0.67,Wunderground v.1.15,2013-02-22 13:50:00,
2013-02-22 08:55:00,36.2,33.5,30.03,SSE,153,18.0,28.0,90,0.00,,,0.67,Wunderground v.1.15,2013-02-22 13:55:00,
2013-02-22 09:00:00,36.2,33.5,30.03,SE,125,19.0,19.0,90,0.00,,,0.67,Wunderground v.1.15,2013-02-22 14:00:00,
2013-02-22 09:05:00,36.3,33.4,30.03,SSE,161,20.0,33.0,89,0.00,,,0.67,Wunderground v.1.15,2013-02-22 14:05:00,
2013-02-22 09:10:00,36.4,34.0,30.03,SSE,159,19.0,19.0,91,0.00,,,0.67,Wunderground v.1.15,2013-02-22 14:10:00,
2013-02-22 09:15:00,36.4,34.0,30.04,SSE,155,19.0,22.0,91,0.00,,,0.67,Wunderground v.1.15,2013-02-22 14:15:00,
2013-02-22 09:21:00,36.4,34.3,30.04,South,177,18.0,20.0,92,0.00,,,0.67,Wunderground v.1.15,2013-02-22 14:21:00,
2013-02-22 09:26:00,36.3,34.2,30.04,SSE,150,17.0,23.0,92,0.00,,,0.67,Wunderground v.1.15,2013-02-22 14:26:00,
2013-02-22 09:31:00,36.1,34.0,30.03,ESE,123,19.0,28.0,92,0.00,,,0.67,Wunderground v.1.15,2013-02-22 14:31:00,
2013-02-22 09:36:00,36.1,34.3,30.03,SSE,153,19.0,28.0,93,0.00,,,0.67,Wunderground v.1.15,2013-02-22 14:36:00,
2013-02-22 09:41:00,36.2,34.4,30.03,SSE,150,20.0,21.0,93,0.00,,,0.67,Wunderground v.1.15,2013-02-22 14:41:00,
2013-02-22 09:47:00,36.2,34.4,30.02,SSE,155,20.0,22.0,93,0.00,,,0.67,Wunderground v.1.15,2013-02-22 14:47:00,
2013-02-22 09:52:00,36.2,34.6,30.02,SE,138,19.0,20.0,94,0.00,,,0.67,Wunderground v.1.15,2013-02-22 14:52:00,
2013-02-22 09:57:00,36.3,34.5,30.03,SE,134,18.0,27.0,93,0.00,,,0.67,Wunderground v.1.15,2013-02-22 14:57:00,
2013-02-22 10:02:00,36.4,34.6,30.03,ESE,119,16.0,22.0,93,0.00,,,0.67,Wunderground v.1.15,2013-02-22 15:02:00,
2013-02-22 10:08:00,36.5,34.7,30.03,SSE,148,17.0,22.0,93,0.00,,,0.67,Wunderground v.1.15,2013-02-22 15:08:00,
2013-02-22 10:13:00,36.6,34.8,30.03,SSE,163,16.0,16.0,93,0.00,,,0.67,Wunderground v.1.15,2013-02-22 15:13:00,
2013-02-22 10:18:00,36.6,34.8,30.03,SE,144,16.0,23.0,93,0.00,,,0.67,Wunderground v.1.15,2013-02-22 15:18:00,
2013-02-22 10:23:00,36.8,35.0,30.03,SE,145,16.0,20.0,93,0.00,,,0.67,Wunderground v.1.15,2013-02-22 15:23:00,
2013-02-22 10:28:00,37.0,35.4,30.02,SSE,156,13.0,20.0,94,0.00,,,0.67,Wunderground v.1.15,2013-02-22 15:28:00,
2013-02-22 10:33:00,37.1,35.5,30.02,SE,136,8.0,12.0,94,0.00,,,0.67,Wunderground v.1.15,2013-02-22 15:33:00,
2013-02-22 10:38:00,37.1,35.3,30.02,South,173,8.0,18.0,93,0.00,,,0.67,Wunderground v.1.15,2013-02-22 15:38:00,
2013-02-22 10:43:00,37.1,35.0,30.01,SE,146,13.0,20.0,92,0.00,,,0.67,Wunderground v.1.15,2013-02-22 15:43:00,
2013-02-22 10:49:00,37.3,35.5,30.01,SE,143,16.0,22.0,93,0.00,,,0.67,Wunderground v.1.15,2013-02-22 15:49:00,
2013-02-22 10:54:00,37.2,35.6,30.01,SSE,149,16.0,21.0,94,0.00,,,0.67,Wunderground v.1.15,2013-02-22 15:54:00,
2013-02-22 10:59:00,37.2,35.6,30.01,SE,141,13.0,21.0,94,0.00,,,0.67,Wunderground v.1.15,2013-02-22 15:59:00,
2013-02-22 11:04:00,37.3,36.0,30.01,SSE,155,12.0,18.0,95,0.00,,,0.67,Wunderground v.1.15,2013-02-22 16:04:00,
2013-02-22 11:09:00,37.5,36.2,30.01,SSE,157,12.0,18.0,95,0.00,,,0.67,Wunderground v.1.15,2013-02-22 16:09:00,
2013-02-22 11:14:00,37.7,36.4,30.00,SE,135,11.0,28.0,95,0.00,,,0.67,Wunderground v.1.15,2013-02-22 16:14:00,
2013-02-22 11:19:00,38.1,36.5,30.00,SE,136,13.0,28.0,94,0.00,,,0.67,Wunderground v.1.15,2013-02-22 16:19:00,
2013-02-22 11:25:00,38.6,36.5,30.00,SE,137,16.0,22.0,92,0.00,,,0.67,Wunderground v.1.15,2013-02-22 16:25:00,
2013-02-22 11:30:00,38.8,36.7,30.01,SE,144,15.0,15.0,92,0.00,,,0.67,Wunderground v.1.15,2013-02-22 16:30:00,
2013-02-22 11:35:00,38.7,36.9,30.01,SE,138,12.0,16.0,93,0.00,,,0.67,Wunderground v.1.15,2013-02-22 16:35:00,
2013-02-22 11:41:00,38.3,36.5,30.01,SSE,152,14.0,20.0,93,0.00,,,0.67,Wunderground v.1.15,2013-02-22 16:41:00,
2013-02-22 11:47:00,38.2,36.6,30.00,SSE,150,16.0,20.0,94,0.00,,,0.67,Wunderground v.1.15,2013-02-22 16:47:00,
2013-02-22 11:52:00,38.5,37.2,30.00,SE,136,14.0,15.0,95,0.00,,,0.67,Wunderground v.1.15,2013-02-22 16:52:00,
2013-02-22 11:57:00,38.6,37.3,30.00,SE,138,13.0,16.0,95,0.00,,,0.67,Wunderground v.1.15,2013-02-22 16:57:00,
2013-02-22 12:02:00,38.8,37.8,30.00,SE,139,9.0,11.0,96,0.00,,,0.67,Wunderground v.1.15,2013-02-22 17:02:00,
2013-02-22 12:07:00,39.3,38.3,30.00,SSE,156,7.0,16.0,96,0.00,,,0.67,Wunderground v.1.15,2013-02-22 17:07:00,
2013-02-22 12:12:00,39.7,38.4,30.01,SSE,153,8.0,8.0,95,0.00,,,0.67,Wunderground v.1.15,2013-02-22 17:12:00,
2013-02-22 12:18:00,40.0,38.7,30.01,SE,145,6.0,8.0,95,0.00,,,0.67,Wunderground v.1.15,2013-02-22 17:18:00,
2013-02-22 12:23:00,40.3,39.0,30.01,SE,146,4.0,8.0,95,0.00,,,0.67,Wunderground v.1.15,2013-02-22 17:23:00,
2013-02-22 12:29:00,40.4,39.1,30.00,SSE,151,5.0,11.0,95,0.00,,,0.67,Wunderground v.1.15,2013-02-22 17:29:00,
2013-02-22 12:34:00,40.4,39.1,30.00,SSE,149,8.0,10.0,95,0.00,,,0.67,Wunderground v.1.15,2013-02-22 17:34:00,
2013-02-22 12:39:00,40.6,39.3,30.00,SSE,157,8.0,10.0,95,0.00,,,0.67,Wunderground v.1.15,2013-02-22 17:39:00,
2013-02-22 12:45:00,40.7,39.6,29.99,SSE,154,6.0,8.0,96,0.00,,,0.67,Wunderground v.1.15,2013-02-22 17:45:00,
2013-02-22 12:50:00,40.7,39.4,29.99,SSE,148,7.0,7.0,95,0.00,,,0.67,Wunderground v.1.15,2013-02-22 17:50:00,
2013-02-22 12:55:00,41.1,40.0,29.99,SSE,149,6.0,8.0,96,0.00,,,0.67,Wunderground v.1.15,2013-02-22 17:55:00,
2013-02-22 13:00:00,40.9,39.8,29.99,SSE,149,4.0,4.0,96,0.00,,,0.67,Wunderground v.1.15,2013-02-22 18:00:00,
2013-02-22 13:05:00,40.5,39.4,29.99,SE,146,3.0,8.0,96,0.00,,,0.67,Wunderground v.1.15,2013-02-22 18:05:00,
2013-02-22 13:10:00,40.1,38.8,29.99,SE,146,6.0,6.0,95,0.00,,,0.67,Wunderground v.1.15,2013-02-22 18:10:00,
2013-02-22 13:15:00,39.8,38.8,29.99,SE,132,7.0,8.0,96,0.00,,,0.67,Wunderground v.1.15,2013-02-22 18:15:00,
2013-02-22 13:20:00,39.5,38.5,29.99,SE,134,5.0,8.0,96,0.00,,,0.67,Wunderground v.1.15,2013-02-22 18:20:00,
2013-02-22 13:26:00,39.5,38.5,29.99,SE,132,5.0,9.0,96,0.00,,,0.67,Wunderground v.1.15,2013-02-22 18:26:00,
2013-02-22 13:31:00,39.5,38.7,29.99,SE,132,2.0,8.0,97,0.00,,,0.67,Wunderground v.1.15,2013-02-22 18:31:00,
2013-02-22 13:36:00,39.5,38.7,29.99,SE,132,2.0,8.0,97,0.00,,,0.67,Wunderground v.1.15,2013-02-22 18:36:00,
2013-02-22 13:41:00,39.8,39.0,29.99,SE,143,5.0,9.0,97,0.00,,,0.67,Wunderground v.1.15,2013-02-22 18:41:00,
2013-02-22 13:46:00,40.0,39.2,29.98,SE,143,6.0,12.0,97,0.00,,,0.67,Wunderground v.1.15,2013-02-22 18:46:00,
2013-02-22 13:51:00,40.5,39.7,29.98,SSE,163,7.0,8.0,97,0.00,,,0.67,Wunderground v.1.15,2013-02-22 18:51:00,
2013-02-22 13:56:00,40.6,39.8,29.98,SSE,149,8.0,10.0,97,0.00,,,0.67,Wunderground v.1.15,2013-02-22 18:56:00,
2013-02-22 14:01:00,40.8,40.0,29.98,SE,146,8.0,8.0,97,0.00,,,0.67,Wunderground v.1.15,2013-02-22 19:01:00,
2013-02-22 14:06:00,41.0,40.2,29.98,SE,146,4.0,8.0,97,0.00,,,0.67,Wunderground v.1.15,2013-02-22 19:06:00,
2013-02-22 14:11:00,41.0,40.2,29.98,SE,146,1.0,8.0,97,0.00,,,0.67,Wunderground v.1.15,2013-02-22 19:11:00,
2013-02-22 14:17:00,40.9,40.1,29.98,SE,146,0.0,8.0,97,0.00,,,0.67,Wunderground v.1.15,2013-02-22 19:17:00,
2013-02-22 14:22:00,41.1,40.3,29.98,SE,146,2.0,8.0,97,0.00,,,0.67,Wunderground v.1.15,2013-02-22 19:22:00,
2013-02-22 14:27:00,41.0,40.2,29.96,SE,144,4.0,8.0,97,0.00,,,0.67,Wunderground v.1.15,2013-02-22 19:27:00,
2013-02-22 14:32:00,41.1,40.3,29.96,SE,141,6.0,8.0,97,0.00,,,0.67,Wunderground v.1.15,2013-02-22 19:32:00,
2013-02-22 14:37:00,41.2,40.4,29.96,SE,141,7.0,10.0,97,0.00,,,0.67,Wunderground v.1.15,2013-02-22 19:37:00,
2013-02-22 14:42:00,41.2,40.4,29.96,SE,139,7.0,8.0,97,0.00,,,0.67,Wunderground v.1.15,2013-02-22 19:42:00,
2013-02-22 14:47:00,41.5,40.7,29.96,SE,139,5.0,10.0,97,0.00,,,0.67,Wunderground v.1.15,2013-02-22 19:47:00,
2013-02-22 14:52:00,41.7,40.9,29.96,SE,139,3.0,8.0,97,0.00,,,0.67,Wunderground v.1.15,2013-02-22 19:52:00,
2013-02-22 14:57:00,41.7,40.9,29.97,SE,140,4.0,8.0,97,0.00,,,0.67,Wunderground v.1.15,2013-02-22 19:57:00,
2013-02-22 15:03:00,41.6,40.8,29.97,SE,139,5.0,10.0,97,0.00,,,0.67,Wunderground v.1.15,2013-02-22 20:03:00,
2013-02-22 15:08:00,41.5,40.7,29.97,SE,137,6.0,12.0,97,0.00,,,0.67,Wunderground v.1.15,2013-02-22 20:08:00,
2013-02-22 15:13:00,41.4,40.6,29.96,SE,136,6.0,8.0,97,0.00,,,0.67,Wunderground v.1.15,2013-02-22 20:13:00,
2013-02-22 15:18:00,41.4,40.6,29.96,SE,136,4.0,10.0,97,0.00,,,0.67,Wunderground v.1.15,2013-02-22 20:18:00,
2013-02-22 15:23:00,41.4,40.6,29.96,SE,136,5.0,10.0,97,0.00,,,0.67,Wunderground v.1.15,2013-02-22 20:23:00,
2013-02-22 15:28:00,41.5,40.7,29.96,SE,136,5.0,10.0,97,0.00,,,0.67,Wunderground v.1.15,2013-02-22 20:28:00,
2013-02-22 15:33:00,41.6,40.8,29.96,SE,136,3.0,9.0,97,0.00,,,0.67,Wunderground v.1.15,2013-02-22 20:33:00,
2013-02-22 15:38:00,41.6,40.8,29.96,SE,136,4.0,9.0,97,0.00,,,0.67,Wunderground v.1.15,2013-02-22 20:38:00,
2013-02-22 15:44:00,41.6,40.8,29.96,SE,136,7.0,8.0,97,0.00,,,0.67,Wunderground v.1.15,2013-02-22 20:44:00,
2013-02-22 15:49:00,41.6,40.8,29.96,SE,136,7.0,10.0,97,0.00,,,0.67,Wunderground v.1.15,2013-02-22 20:49:00,
2013-02-22 15:54:00,41.6,40.8,29.96,SE,136,6.0,8.0,97,0.00,,,0.67,Wunderground v.1.15,2013-02-22 20:54:00,
2013-02-22 15:59:00,41.6,40.8,29.96,SE,134,6.0,8.0,97,0.00,,,0.67,Wunderground v.1.15,2013-02-22 20:59:00,
2013-02-22 16:04:00,41.7,40.9,29.96,SE,134,7.0,12.0,97,0.00,,,0.67,Wunderground v.1.15,2013-02-22 21:04:00,
2013-02-22 16:09:00,41.8,41.0,29.96,SE,134,8.0,12.0,97,0.00,,,0.67,Wunderground v.1.15,2013-02-22 21:09:00,
2013-02-22 16:14:00,41.9,41.1,29.95,SE,135,6.0,8.0,97,0.00,,,0.67,Wunderground v.1.15,2013-02-22 21:14:00,
2013-02-22 16:19:00,41.8,41.0,29.95,SE,135,5.0,8.0,97,0.00,,,0.67,Wunderground v.1.15,2013-02-22 21:19:00,
2013-02-22 16:25:00,41.7,40.9,29.95,SE,134,5.0,12.0,97,0.00,,,0.67,Wunderground v.1.15,2013-02-22 21:25:00,
2013-02-22 16:30:00,41.7,40.9,29.95,SE,133,5.0,5.0,97,0.00,,,0.67,Wunderground v.1.15,2013-02-22 21:30:00,
2013-02-22 16:35:00,41.6,40.8,29.95,SE,134,6.0,11.0,97,0.00,,,0.67,Wunderground v.1.15,2013-02-22 21:35:00,
2013-02-22 16:40:00,41.6,41.1,29.95,SE,134,7.0,8.0,98,0.00,,,0.67,Wunderground v.1.15,2013-02-22 21:40:00,
2013-02-22 16:45:00,41.7,41.2,29.94,SE,134,5.0,8.0,98,0.00,,,0.67,Wunderground v.1.15,2013-02-22 21:45:00,
2013-02-22 16:51:00,41.8,41.3,29.94,SE,134,2.0,8.0,98,0.00,,,0.67,Wunderground v.1.15,2013-02-22 21:51:00,
2013-02-22 16:56:00,41.8,41.3,29.94,SE,133,0.0,8.0,98,0.00,,,0.67,Wunderground v.1.15,2013-02-22 21:56:00,
2013-02-22 17:01:00,41.8,41.3,29.94,SE,133,1.0,8.0,98,0.00,,,0.67,Wunderground v.1.15,2013-02-22 22:01:00,
2013-02-22 17:06:00,41.8,41.3,29.94,SE,133,0.0,8.0,98,0.00,,,0.67,Wunderground v.1.15,2013-02-22 22:06:00,
2013-02-22 17:12:00,41.6,41.1,29.93,SE,133,1.0,8.0,98,0.00,,,0.67,Wunderground v.1.15,2013-02-22 22:12:00,
2013-02-22 17:17:00,41.6,41.1,29.93,SE,133,2.0,8.0,98,0.00,,,0.67,Wunderground v.1.15,2013-02-22 22:17:00,
2013-02-22 17:22:00,41.5,41.0,29.93,SE,133,1.0,8.0,98,0.00,,,0.67,Wunderground v.1.15,2013-02-22 22:22:00,
2013-02-22 17:28:00,41.5,41.0,29.94,SE,132,1.0,8.0,98,0.00,,,0.67,Wunderground v.1.15,2013-02-22 22:28:00,
2013-02-22 17:33:00,41.5,41.0,29.94,SE,132,1.0,8.0,98,0.00,,,0.67,Wunderground v.1.15,2013-02-22 22:33:00,
2013-02-22 17:38:00,41.5,41.0,29.94,SE,132,1.0,8.0,98,0.00,,,0.67,Wunderground v.1.15,2013-02-22 22:38:00,
2013-02-22 17:43:00,41.5,41.0,29.94,SE,132,1.0,8.0,98,0.00,,,0.67,Wunderground v.1.15,2013-02-22 22:43:00,
2013-02-22 17:48:00,41.3,40.8,29.94,SE,134,2.0,8.0,98,0.00,,,0.67,Wunderground v.1.15,2013-02-22 22:48:00,
2013-02-22 17:53:00,41.1,40.6,29.94,SE,131,4.0,16.0,98,0.00,,,0.67,Wunderground v.1.15,2013-02-22 22:53:00,
2013-02-22 17:59:00,40.9,40.4,29.95,SE,133,9.0,16.0,98,0.00,,,0.67,Wunderground v.1.15,2013-02-22 22:59:00,
2013-02-22 18:04:00,40.9,40.4,29.95,ESE,120,9.0,11.0,98,0.00,,,0.67,Wunderground v.1.15,2013-02-22 23:04:00,
2013-02-22 18:09:00,40.8,40.3,29.95,ESE,116,10.0,18.0,98,0.00,,,0.67,Wunderground v.1.15,2013-02-22 23:09:00,
2013-02-22 18:14:00,40.7,40.2,29.94,SE,138,8.0,9.0,98,0.00,,,0.67,Wunderground v.1.15,2013-02-22 23:14:00,
2013-02-22 18:19:00,40.7,40.2,29.94,SE,129,7.0,12.0,98,0.00,,,0.67,Wunderground v.1.15,2013-02-22 23:19:00,
2013-02-22 18:24:00,40.6,40.1,29.94,ESE,104,8.0,17.0,98,0.00,,,0.67,Wunderground v.1.15,2013-02-22 23:24:00,
2013-02-22 18:29:00,40.5,40.0,29.94,ESE,119,10.0,18.0,98,0.00,,,0.67,Wunderground v.1.15,2013-02-22 23:29:00,
2013-02-22 18:34:00,40.5,40.0,29.94,SE,144,9.0,19.0,98,0.00,,,0.67,Wunderground v.1.15,2013-02-22 23:34:00,
2013-02-22 18:39:00,40.4,39.9,29.94,SE,133,10.0,19.0,98,0.00,,,0.67,Wunderground v.1.15,2013-02-22 23:39:00,
2013-02-22 18:45:00,40.5,40.0,29.95,SE,133,9.0,10.0,98,0.00,,,0.67,Wunderground v.1.15,2013-02-22 23:45:00,
2013-02-22 18:50:00,40.4,39.9,29.95,SE,134,5.0,5.0,98,0.00,,,0.67,Wunderground v.1.15,2013-02-22 23:50:00,
2013-02-22 18:55:00,40.5,40.0,29.95,SE,134,2.0,8.0,98,0.00,,,0.67,Wunderground v.1.15,2013-02-22 23:55:00,
2013-02-22 19:00:00,40.7,40.2,29.96,SE,134,0.0,8.0,98,0.00,,,0.67,Wunderground v.1.15,2013-02-23 00:00:00,
2013-02-22 19:06:00,40.7,40.2,29.96,SE,134,0.0,8.0,98,0.00,,,0.67,Wunderground v.1.15,2013-02-23 00:06:00,
2013-02-22 19:11:00,40.6,40.1,29.96,SE,134,0.0,8.0,98,0.00,,,0.67,Wunderground v.1.15,2013-02-23 00:11:00,
2013-02-22 19:16:00,40.6,40.1,29.96,SE,134,0.0,8.0,98,0.00,,,0.67,Wunderground v.1.15,2013-02-23 00:16:00,
2013-02-22 19:21:00,40.5,40.0,29.96,SE,134,0.0,8.0,98,0.00,,,0.67,Wunderground v.1.15,2013-02-23 00:21:00,
2013-02-22 19:26:00,40.6,40.1,29.96,SE,134,0.0,8.0,98,0.00,,,0.67,Wunderground v.1.15,2013-02-23 00:26:00,
2013-02-22 19:31:00,40.5,40.0,29.96,SE,134,0.0,8.0,98,0.00,,,0.67,Wunderground v.1.15,2013-02-23 00:31:00,
2013-02-22 19:37:00,40.5,40.0,29.96,SE,134,0.0,8.0,98,0.00,,,0.67,Wunderground v.1.15,2013-02-23 00:37:00,
2013-02-22 19:42:00,40.6,40.1,29.97,SE,134,0.0,8.0,98,0.00,,,0.67,Wunderground v.1.15,2013-02-23 00:42:00,
2013-02-22 19:48:00,40.6,40.1,29.97,SE,134,0.0,8.0,98,0.00,,,0.67,Wunderground v.1.15,2013-02-23 00:48:00,
2013-02-22 19:53:00,40.6,40.1,29.97,SE,134,0.0,8.0,98,0.00,,,0.67,Wunderground v.1.15,2013-02-23 00:53:00,
2013-02-22 19:58:00,40.6,40.1,29.98,SE,134,0.0,8.0,98,0.00,,,0.67,Wunderground v.1.15,2013-02-23 00:58:00,
2013-02-22 20:03:00,40.6,40.1,29.98,SE,134,0.0,8.0,98,0.00,,,0.67,Wunderground v.1.15,2013-02-23 01:03:00,
2013-02-22 20:08:00,40.6,40.1,29.98,SE,134,0.0,8.0,98,0.00,,,0.67,Wunderground v.1.15,2013-02-23 01:08:00,
2013-02-22 20:13:00,40.6,40.1,29.98,SE,134,0.0,8.0,98,0.00,,,0.67,Wunderground v.1.15,2013-02-23 01:13:00,
2013-02-22 20:18:00,40.5,40.0,29.98,SE,134,2.0,8.0,98,0.00,,,0.67,Wunderground v.1.15,2013-02-23 01:18:00,
2013-02-22 20:23:00,40.5,40.0,29.98,SE,128,5.0,13.0,98,0.00,,,0.67,Wunderground v.1.15,2013-02-23 01:23:00,
2013-02-22 20:28:00,40.4,39.9,29.97,SE,130,8.0,17.0,98,0.00,,,0.67,Wunderground v.1.15,2013-02-23 01:28:00,
2013-02-22 20:33:00,40.4,39.9,29.97,SE,138,10.0,16.0,98,0.00,,,0.67,Wunderground v.1.15,2013-02-23 01:33:00,
2013-02-22 20:39:00,40.2,39.7,29.97,ESE,122,12.0,16.0,98,0.00,,,0.67,Wunderground v.1.15,2013-02-23 01:39:00,
2013-02-22 20:44:00,40.2,39.7,29.97,SE,138,13.0,22.0,98,0.00,,,0.67,Wunderground v.1.15,2013-02-23 01:44:00,
2013-02-22 20:49:00,40.1,39.6,29.97,ESE,115,12.0,22.0,98,0.00,,,0.67,Wunderground v.1.15,2013-02-23 01:49:00,
2013-02-22 20:55:00,40.1,39.6,29.97,SE,136,11.0,20.0,98,0.00,,,0.67,Wunderground v.1.15,2013-02-23 01:55:00,
2013-02-22 21:00:00,40.2,39.7,29.97,SE,134,14.0,14.0,98,0.00,,,0.67,Wunderground v.1.15,2013-02-23 02:00:00,
2013-02-22 21:05:00,40.2,39.7,29.97,SSE,155,15.0,19.0,98,0.00,,,0.67,Wunderground v.1.15,2013-02-23 02:05:00,
2013-02-22 21:10:00,40.2,39.7,29.97,ESE,118,13.0,13.0,98,0.00,,,0.67,Wunderground v.1.15,2013-02-23 02:10:00,
2013-02-22 21:15:00,40.1,39.6,29.96,East,85,11.0,15.0,98,0.00,,,0.67,Wunderground v.1.15,2013-02-23 02:15:00,
2013-02-22 21:20:00,39.9,39.4,29.96,ESE,103,11.0,15.0,98,0.00,,,0.67,Wunderground v.1.15,2013-02-23 02:20:00,
2013-02-22 21:25:00,39.8,39.3,29.96,ESE,117,12.0,15.0,98,0.00,,,0.67,Wunderground v.1.15,2013-02-23 02:25:00,
2013-02-22 21:30:00,39.8,39.3,29.93,SE,126,13.0,13.0,98,0.00,,,0.67,Wunderground v.1.15,2013-02-23 02:30:00,
2013-02-22 21:35:00,39.7,39.2,29.93,SSE,153,10.0,13.0,98,0.00,,,0.67,Wunderground v.1.15,2013-02-23 02:35:00,
2013-02-22 21:40:00,39.7,39.2,29.93,ESE,119,7.0,18.0,98,0.00,,,0.67,Wunderground v.1.15,2013-02-23 02:40:00,
2013-02-22 21:45:00,39.8,39.3,29.92,SE,134,8.0,18.0,98,0.00,,,0.67,Wunderground v.1.15,2013-02-23 02:45:00,
2013-02-22 21:50:00,39.8,39.3,29.92,SE,126,7.0,7.0,98,0.00,,,0.67,Wunderground v.1.15,2013-02-23 02:50:00,
2013-02-22 21:55:00,40.1,39.6,29.92,SE,128,3.0,8.0,98,0.00,,,0.67,Wunderground v.1.15,2013-02-23 02:55:00,
2013-02-22 22:00:00,40.1,39.6,29.94,SE,125,2.0,8.0,98,0.00,,,0.67,Wunderground v.1.15,2013-02-23 03:00:00,
2013-02-22 22:06:00,40.0,39.5,29.94,ESE,102,3.0,8.0,98,0.00,,,0.67,Wunderground v.1.15,2013-02-23 03:06:00,
2013-02-22 22:11:00,39.9,39.4,29.94,ENE,70,2.0,8.0,98,0.00,,,0.67,Wunderground v.1.15,2013-02-23 03:11:00,
2013-02-22 22:17:00,39.8,39.3,29.93,ENE,70,1.0,8.0,98,0.00,,,0.67,Wunderground v.1.15,2013-02-23 03:17:00,
2013-02-22 22:22:00,39.9,39.4,29.93,ENE,71,1.0,8.0,98,0.00,,,0.67,Wunderground v.1.15,2013-02-23 03:22:00,
2013-02-22 22:27:00,39.8,39.3,29.93,ENE,71,0.0,8.0,98,0.00,,,0.67,Wunderground v.1.15,2013-02-23 03:27:00,
2013-02-22 22:32:00,39.8,39.3,29.93,ENE,71,0.0,8.0,98,0.00,,,0.67,Wunderground v.1.15,2013-02-23 03:32:00,
2013-02-22 22:37:00,39.9,39.4,29.93,East,86,2.0,8.0,98,0.00,,,0.67,Wunderground v.1.15,2013-02-23 03:37:00,
2013-02-22 22:42:00,40.1,39.6,29.95,SSE,149,3.0,8.0,98,0.00,,,0.67,Wunderground v.1.15,2013-02-23 03:42:00,
2013-02-22 22:47:00,40.3,39.8,29.95,SSE,148,3.0,10.0,98,0.00,,,0.67,Wunderground v.1.15,2013-02-23 03:47:00,
2013-02-22 22:52:00,40.2,39.7,29.95,ESE,111,5.0,9.0,98,0.00,,,0.67,Wunderground v.1.15,2013-02-23 03:52:00,
2013-02-22 22:57:00,40.0,39.5,29.95,ESE,122,11.0,21.0,98,0.00,,,0.67,Wunderground v.1.15,2013-02-23 03:57:00,
2013-02-22 23:02:00,39.8,39.3,29.95,ESE,120,19.0,34.0,98,0.00,,,0.67,Wunderground v.1.15,2013-02-23 04:02:00,
2013-02-22 23:08:00,39.9,39.4,29.95,SE,128,24.0,34.0,98,0.00,,,0.67,Wunderground v.1.15,2013-02-23 04:08:00,
2013-02-22 23:13:00,39.7,39.2,29.97,ESE,107,25.0,34.0,98,0.00,,,0.67,Wunderground v.1.15,2013-02-23 04:13:00,
2013-02-22 23:18:00,39.7,39.2,29.97,SE,126,23.0,34.0,98,0.00,,,0.67,Wunderground v.1.15,2013-02-23 04:18:00,
2013-02-22 23:23:00,40.0,39.5,29.97,SE,142,19.0,30.0,98,0.00,,,0.67,Wunderground v.1.15,2013-02-23 04:23:00,
2013-02-22 23:28:00,40.0,39.5,29.95,SE,128,15.0,30.0,98,0.00,,,0.67,Wunderground v.1.15,2013-02-23 04:28:00,
2013-02-22 23:33:00,40.0,39.5,29.95,SE,130,9.0,12.0,98,0.00,,,0.67,Wunderground v.1.15,2013-02-23 04:33:00,
2013-02-22 23:38:00,40.3,39.8,29.95,SE,124,8.0,14.0,98,0.00,,,0.67,Wunderground v.1.15,2013-02-23 04:38:00,
2013-02-22 23:43:00,40.9,40.4,29.95,South,184,9.0,12.0,98,0.00,,,0.68,Wunderground v.1.15,2013-02-23 04:43:00,
2013-02-22 23:49:00,40.9,40.4,29.95,South,184,4.0,12.0,98,0.00,,,0.68,Wunderground v.1.15,2013-02-23 04:49:00,
2013-02-22 23:54:00,40.8,40.3,29.95,South,184,1.0,8.0,98,0.00,,,0.68,Wunderground v.1.15,2013-02-23 04:54:00,